H-2A DEB (43069 NORAD) Tracking and Keplerian Element Data

This shows tracking and keplerian element data for the satellite.

Feedback or suggestion? Click here.




ElementValue
Catalog43069
NameH-2A DEB
Epoch Orbit426
Epoch Day21.75436811
Epoch Year2018
RAAN95.2312
Inclination98.5203
Eccentricity0.0031351
Argument of Perigee38.5058
Mean Anonmoly321.835
Mean Motion14.37716701
Decay Rate2.7E-06
L11 43069U 17082E 18021.75436811 .00000270 00000-0 10383-3 0 9994
L22 43069 98.5203 95.2312 0031351 38.5058 321.8350 14.37716701 4266



Live tracking and technical data element details for H-2A DEB (NORAD 43069). H-2A DEB can be tracked NOW for your location showing map with azimuth and elevation plus other details from your city location.







IsCatalogInMostPopularTable: catalog: 43069, numindb: 504
Update: records affected: 1



GetName: 43069 H-2A DEB

Hit Count: updated at: Sat, 24 May 2025 15:57:28 GMT